SIMPL (42983 NORAD) Tracking and Keplerian Element Data

This shows tracking and keplerian element data for the satellite.

Feedback or suggestion? Click here.




ElementValue
Catalog42983
NameSIMPL
Epoch Orbit26888
Epoch Day193.04156652
Epoch Year2022
RAAN49.5277
Inclination51.6251
Eccentricity0.0002768
Argument of Perigee256.3085
Mean Anonmoly103.7622
Mean Motion16.10448526
Decay Rate0.00423983
L11 42983U 98067NF 22193.04156652 .00423983 10174-3 42623-3 0 9997
L22 42983 51.6251 49.5277 0002768 256.3085 103.7622 16.10448526268884



Live tracking and technical data element details for SIMPL (NORAD 42983). SIMPL can be tracked NOW for your location showing map with azimuth and elevation plus other details from your city location.







IsCatalogInMostPopularTable: catalog: 42983, numindb: 826
Update: records affected: 1



GetName: 42983 SIMPL

Hit Count: updated at: Thu, 16 Apr 2026 04:16:50 GMT